When you browse on this site, cookies collect data to enhance your experience and personalize the content and advertising you see.
Visit our Privacy Policy to learn more. By continuing to use the site, you agree to this use of cookies and data.
  • En España
  • Lista de países
  • Para 7 días
  • Temperatura del agua
  • El tiempo en el mapa
  • Informadores
  • user-avatar
    Iniciar sesión

    Tiempo cada hora Setubal

    Hoy, 31 Mayo, Domingo

    Tiempo Temperatura Precipitaciones Viento Presión Humedad
    00:00 +21°C° 0 mm 1 mps 752 mmHg 86%
    01:00 +20°C° 0 mm 2 mps 752 mmHg 86%
    02:00 +20°C° 0 mm 2 mps 751 mmHg 86%
    03:00 +20°C° 0.2 mm 2 mps 751 mmHg 87%
    04:00 +19°C° 0.2 mm 2 mps 751 mmHg 87%
    05:00 +20°C° 0.2 mm 1 mps 751 mmHg 87%
    06:00 +22°C° 0.1 mm 1 mps 752 mmHg 80%
    07:00 +24°C° 0.1 mm 1 mps 752 mmHg 73%
    08:00 +26°C° 0.1 mm 1 mps 752 mmHg 66%
    09:00 +27°C° 0.1 mm 1 mps 752 mmHg 61%
    10:00 +28°C° 0.1 mm 2 mps 752 mmHg 55%
    11:00 +30°C° 0.1 mm 2 mps 752 mmHg 50%
    12:00 +30°C° 0.2 mm 3 mps 752 mmHg 49%
    13:00 +30°C° 0.2 mm 3 mps 752 mmHg 47%
    14:00 +30°C° 0.2 mm 4 mps 752 mmHg 46%
    15:00 +29°C° 0 mm 4 mps 752 mmHg 51%
    16:00 +27°C° 0 mm 4 mps 751 mmHg 56%
    17:00 +26°C° 0 mm 4 mps 751 mmHg 61%
    18:00 +23°C° 0.1 mm 4 mps 752 mmHg 68%
    19:00 +22°C° 0.1 mm 4 mps 752 mmHg 74%
    20:00 +20°C° 0.1 mm 3 mps 753 mmHg 81%
    21:00 +20°C° 0 mm 3 mps 753 mmHg 83%
    22:00 +19°C° 0 mm 2 mps 753 mmHg 85%
    23:00 +19°C° 0 mm 2 mps 752 mmHg 88%

    Mañana, 1 Junio, Lunes

    Tiempo Temperatura Precipitaciones Viento Presión Humedad
    00:00 +18°C° 0 mm 2 mps 752 mmHg 89%
    01:00 +19°C° 0 mm 1 mps 752 mmHg 90%
    02:00 +19°C° 0 mm 1 mps 753 mmHg 92%
    03:00 +19°C° 0 mm 1 mps 753 mmHg 90%
    04:00 +19°C° 0 mm 1 mps 753 mmHg 89%
    05:00 +19°C° 0 mm 1 mps 753 mmHg 88%
    06:00 +20°C° 0 mm 1 mps 753 mmHg 83%
    07:00 +22°C° 0 mm 1 mps 753 mmHg 79%
    08:00 +23°C° 0 mm 1 mps 754 mmHg 74%
    09:00 +23°C° 0 mm 1 mps 754 mmHg 71%
    10:00 +24°C° 0 mm 2 mps 754 mmHg 68%
    11:00 +25°C° 0 mm 2 mps 754 mmHg 65%
    12:00 +26°C° 0 mm 2 mps 754 mmHg 63%
    13:00 +26°C° 0 mm 2 mps 754 mmHg 60%
    14:00 +27°C° 0 mm 2 mps 754 mmHg 58%
    15:00 +26°C° 0 mm 2 mps 753 mmHg 60%
    16:00 +26°C° 0 mm 3 mps 753 mmHg 62%
    17:00 +25°C° 0 mm 3 mps 753 mmHg 64%
    18:00 +22°C° 0 mm 3 mps 753 mmHg 71%
    19:00 +21°C° 0 mm 2 mps 754 mmHg 78%
    20:00 +19°C° 0 mm 2 mps 754 mmHg 85%
    21:00 +19°C° 0 mm 2 mps 754 mmHg 87%
    22:00 +20°C° 0 mm 1 mps 754 mmHg 89%
    23:00 +19°C° 0 mm 1 mps 754 mmHg 91%

    Pasado mañana, 2 Junio, Martes

    Tiempo Temperatura Precipitaciones Viento Presión Humedad
    00:00 +19°C° 0 mm 1 mps 754 mmHg 91%
    01:00 +19°C° 0 mm 1 mps 754 mmHg 92%
    02:00 +19°C° 0 mm 1 mps 753 mmHg 92%
    03:00 +19°C° 0 mm 1 mps 754 mmHg 93%
    04:00 +19°C° 0 mm 1 mps 754 mmHg 93%
    05:00 +19°C° 0 mm 1 mps 754 mmHg 93%
    06:00 +19°C° 0 mm 2 mps 754 mmHg 85%
    07:00 +21°C° 0 mm 2 mps 755 mmHg 76%
    08:00 +24°C° 0 mm 2 mps 755 mmHg 67%
    09:00 +24°C° 0 mm 2 mps 755 mmHg 65%
    10:00 +25°C° 0 mm 3 mps 755 mmHg 63%
    11:00 +25°C° 0 mm 3 mps 755 mmHg 60%
    12:00 +25°C° 0 mm 3 mps 754 mmHg 59%
    13:00 +25°C° 0 mm 3 mps 754 mmHg 58%
    14:00 +25°C° 0 mm 4 mps 754 mmHg 57%
    15:00 +25°C° 0 mm 4 mps 754 mmHg 59%
    16:00 +23°C° 0 mm 4 mps 754 mmHg 60%
    17:00 +23°C° 0 mm 4 mps 753 mmHg 62%
    18:00 +21°C° 0 mm 3 mps 754 mmHg 68%
    19:00 +20°C° 0 mm 3 mps 754 mmHg 74%
    20:00 +19°C° 0 mm 2 mps 754 mmHg 80%
    21:00 +18°C° 0 mm 2 mps 754 mmHg 83%
    22:00 +19°C° 0 mm 1 mps 754 mmHg 86%
    23:00 +18°C° 0 mm 1 mps 754 mmHg 89%

    3 Junio, Miércoles

    Tiempo Temperatura Precipitaciones Viento Presión Humedad
    00:00 +18°C° 0 mm 1 mps 754 mmHg 89%
    01:00 +18°C° 0 mm 1 mps 753 mmHg 90%
    02:00 +16°C° 0 mm 0 mps 753 mmHg 91%
    03:00 +18°C° 0 mm 1 mps 753 mmHg 90%
    04:00 +18°C° 0 mm 1 mps 753 mmHg 90%
    05:00 +18°C° 0 mm 1 mps 752 mmHg 89%
    06:00 +19°C° 0 mm 2 mps 752 mmHg 82%
    07:00 +20°C° 0 mm 2 mps 752 mmHg 76%
    08:00 +21°C° 0 mm 3 mps 753 mmHg 69%
    09:00 +22°C° 0 mm 4 mps 752 mmHg 68%
    10:00 +22°C° 0 mm 4 mps 752 mmHg 67%
    11:00 +22°C° 0 mm 5 mps 752 mmHg 66%
    12:00 +22°C° 0 mm 5 mps 751 mmHg 66%
    13:00 +22°C° 0 mm 5 mps 751 mmHg 67%
    14:00 +23°C° 0 mm 6 mps 750 mmHg 67%
    15:00 +22°C° 0.3 mm 6 mps 750 mmHg 72%
    16:00 +21°C° 0.3 mm 6 mps 750 mmHg 78%
    17:00 +21°C° 0.3 mm 6 mps 749 mmHg 83%
    18:00 +20°C° 1.3 mm 6 mps 749 mmHg 85%
    19:00 +20°C° 1.3 mm 5 mps 749 mmHg 87%
    20:00 +20°C° 1.3 mm 5 mps 749 mmHg 89%
    21:00 +20°C° 1.3 mm 5 mps 749 mmHg 89%
    22:00 +19°C° 1.3 mm 5 mps 749 mmHg 89%
    23:00 +19°C° 1.3 mm 6 mps 748 mmHg 90%

    4 Junio, Jueves

    Tiempo Temperatura Precipitaciones Viento Presión Humedad
    00:00 +19°C° 3.3 mm 5 mps 748 mmHg 91%
    01:00 +19°C° 3.3 mm 5 mps 747 mmHg 93%
    02:00 +18°C° 3.3 mm 4 mps 746 mmHg 94%
    03:00 +18°C° 1.4 mm 3 mps 746 mmHg 93%
    04:00 +18°C° 1.4 mm 3 mps 746 mmHg 92%
    05:00 +18°C° 1.4 mm 2 mps 746 mmHg 91%
    06:00 +19°C° 0.5 mm 4 mps 746 mmHg 86%
    07:00 +20°C° 0.5 mm 5 mps 746 mmHg 81%
    08:00 +21°C° 0.5 mm 6 mps 746 mmHg 76%
    09:00 +21°C° 0.7 mm 7 mps 746 mmHg 73%
    10:00 +21°C° 0.7 mm 8 mps 746 mmHg 71%
    11:00 +21°C° 0.7 mm 9 mps 746 mmHg 69%
    12:00 +21°C° 0.4 mm 8 mps 746 mmHg 70%
    13:00 +21°C° 0.4 mm 8 mps 746 mmHg 71%
    14:00 +20°C° 0.4 mm 8 mps 746 mmHg 72%
    15:00 +20°C° 0.7 mm 8 mps 745 mmHg 74%
    16:00 +19°C° 0.7 mm 9 mps 745 mmHg 75%
    17:00 +19°C° 0.7 mm 9 mps 745 mmHg 76%
    18:00 +18°C° 0.7 mm 9 mps 746 mmHg 79%
    19:00 +17°C° 0.7 mm 8 mps 746 mmHg 81%
    20:00 +16°C° 0.7 mm 7 mps 746 mmHg 83%
    21:00 +16°C° 0.5 mm 7 mps 746 mmHg 83%
    22:00 +16°C° 0.5 mm 7 mps 747 mmHg 84%
    23:00 +16°C° 0.5 mm 7 mps 747 mmHg 84%

    5 Junio, Viernes

    Tiempo Temperatura Precipitaciones Viento Presión Humedad
    00:00 +15°C° 0.4 mm 6 mps 747 mmHg 85%
    01:00 +15°C° 0.4 mm 6 mps 747 mmHg 86%
    02:00 +15°C° 0.4 mm 5 mps 747 mmHg 87%
    03:00 +15°C° 0.1 mm 5 mps 747 mmHg 87%
    04:00 +15°C° 0.1 mm 5 mps 747 mmHg 87%
    05:00 +15°C° 0.1 mm 5 mps 748 mmHg 87%
    06:00 +16°C° 0.4 mm 5 mps 748 mmHg 81%
    07:00 +17°C° 0.4 mm 6 mps 748 mmHg 76%
    08:00 +19°C° 0.4 mm 6 mps 749 mmHg 70%
    09:00 +20°C° 0.3 mm 7 mps 749 mmHg 66%
    10:00 +20°C° 0.3 mm 8 mps 749 mmHg 63%
    11:00 +21°C° 0.3 mm 8 mps 749 mmHg 59%
    12:00 +21°C° 0.1 mm 9 mps 749 mmHg 60%
    13:00 +21°C° 0.1 mm 9 mps 749 mmHg 60%
    14:00 +21°C° 0.1 mm 9 mps 749 mmHg 61%
    15:00 +19°C° 0.2 mm 9 mps 750 mmHg 63%
    16:00 +20°C° 0.2 mm 8 mps 750 mmHg 65%
    17:00 +20°C° 0.2 mm 8 mps 750 mmHg 67%
    18:00 +18°C° 0 mm 7 mps 751 mmHg 71%
    19:00 +17°C° 0 mm 6 mps 751 mmHg 76%
    20:00 +16°C° 0 mm 6 mps 752 mmHg 80%
    21:00 +16°C° 0.1 mm 6 mps 752 mmHg 81%
    22:00 +16°C° 0.1 mm 6 mps 752 mmHg 82%
    23:00 +16°C° 0.1 mm 6 mps 752 mmHg 84%
    Mostrar más